Year,Month,Day,Hour,Minute,Value (Times are PST for windgust in km/hr)
2006,01,27,00,00,8.10
2006,01,27,00,01,4.80
2006,01,27,00,02,3.20
2006,01,27,00,03,4.80
2006,01,27,00,04,4.80
2006,01,27,00,05,6.40
2006,01,27,00,06,4.80
2006,01,27,00,07,6.40
2006,01,27,00,08,8.10
2006,01,27,00,09,8.10
2006,01,27,00,10,4.80
2006,01,27,00,11,8.10
2006,01,27,00,12,4.80
2006,01,27,00,13,11.30
2006,01,27,00,14,17.70
2006,01,27,00,15,19.30
2006,01,27,00,16,8.10
2006,01,27,00,17,9.60
2006,01,27,00,18,11.30
2006,01,27,00,19,9.60
2006,01,27,00,20,9.60
2006,01,27,00,21,11.30
2006,01,27,00,22,8.10
2006,01,27,00,23,4.80
2006,01,27,00,24,3.20
2006,01,27,00,25,3.20
2006,01,27,00,26,3.20
2006,01,27,00,27,14.50
2006,01,27,00,28,22.50
2006,01,27,00,29,14.50
2006,01,27,00,30,6.40
2006,01,27,00,31,3.20
2006,01,27,00,32,3.20
2006,01,27,00,33,3.20
2006,01,27,00,34,3.20
2006,01,27,00,35,3.20
2006,01,27,00,36,6.40
2006,01,27,00,37,6.40
2006,01,27,00,38,4.80
2006,01,27,00,39,8.10
2006,01,27,00,40,11.30
2006,01,27,00,41,9.60
2006,01,27,00,42,1.60
2006,01,27,00,43,3.20
2006,01,27,00,44,3.20
2006,01,27,00,45,6.40
2006,01,27,00,46,6.40
2006,01,27,00,47,4.80
2006,01,27,00,48,4.80
2006,01,27,00,49,6.40
2006,01,27,00,50,4.80
2006,01,27,00,51,3.20
2006,01,27,00,52,1.60
2006,01,27,00,53,1.60
2006,01,27,00,54,3.20
2006,01,27,00,55,4.80
2006,01,27,00,56,1.60
2006,01,27,00,57,4.80
2006,01,27,00,58,4.80
2006,01,27,00,59,4.80
2006,01,27,01,00,4.80
2006,01,27,01,01,4.80
2006,01,27,01,02,4.80
2006,01,27,01,03,4.80
2006,01,27,01,04,4.80
2006,01,27,01,05,4.80
2006,01,27,01,06,4.80
2006,01,27,01,07,4.80
2006,01,27,01,08,0.00
2006,01,27,01,09,0.00
2006,01,27,01,10,0.00
2006,01,27,01,11,0.00
2006,01,27,01,12,0.00
2006,01,27,01,13,0.00
2006,01,27,01,14,0.00
2006,01,27,01,15,0.00
2006,01,27,01,16,0.00
2006,01,27,01,17,0.00
2006,01,27,01,18,0.00
2006,01,27,01,19,0.00
2006,01,27,01,20,0.00
2006,01,27,01,21,0.00
2006,01,27,01,22,0.00
2006,01,27,01,23,0.00
2006,01,27,01,24,0.00
2006,01,27,01,25,0.00
2006,01,27,01,26,0.00
2006,01,27,01,27,0.00
2006,01,27,01,28,0.00
2006,01,27,01,29,0.00
2006,01,27,01,30,0.00
2006,01,27,01,31,0.00
2006,01,27,01,32,0.00
2006,01,27,01,33,0.00
2006,01,27,01,34,0.00
2006,01,27,01,35,0.00
2006,01,27,01,36,0.00
2006,01,27,01,37,0.00
2006,01,27,01,38,0.00
2006,01,27,01,39,0.00
2006,01,27,01,40,1.60
2006,01,27,01,41,0.00
2006,01,27,01,42,0.00
2006,01,27,01,43,0.00
2006,01,27,01,44,1.60
2006,01,27,01,45,3.20
2006,01,27,01,46,0.00
2006,01,27,01,47,0.00
2006,01,27,01,48,1.60
2006,01,27,01,49,3.20
2006,01,27,01,50,3.20
2006,01,27,01,51,3.20
2006,01,27,01,52,3.20
2006,01,27,01,53,4.80
2006,01,27,01,54,3.20
2006,01,27,01,55,1.60
2006,01,27,01,56,0.00
2006,01,27,01,57,1.60
2006,01,27,01,58,3.20
2006,01,27,01,59,1.60
2006,01,27,02,00,0.00
2006,01,27,02,01,3.20
2006,01,27,02,02,3.20
2006,01,27,02,03,3.20
2006,01,27,02,04,3.20
2006,01,27,02,05,3.20
2006,01,27,02,06,1.60
2006,01,27,02,07,1.60
2006,01,27,02,08,0.00
2006,01,27,02,09,0.00
2006,01,27,02,10,0.00
2006,01,27,02,11,0.00
2006,01,27,02,12,0.00
2006,01,27,02,13,0.00
2006,01,27,02,14,0.00
2006,01,27,02,15,0.00
2006,01,27,02,16,0.00
2006,01,27,02,17,0.00
2006,01,27,02,18,1.60
2006,01,27,02,19,3.20
2006,01,27,02,20,1.60
2006,01,27,02,21,1.60
2006,01,27,02,22,1.60
2006,01,27,02,23,1.60
2006,01,27,02,24,1.60
2006,01,27,02,25,1.60
2006,01,27,02,26,1.60
2006,01,27,02,27,3.20
2006,01,27,02,28,1.60
2006,01,27,02,29,3.20
2006,01,27,02,30,1.60
2006,01,27,02,31,1.60
2006,01,27,02,32,0.00
2006,01,27,02,33,0.00
2006,01,27,02,34,0.00
2006,01,27,02,35,0.00
2006,01,27,02,36,1.60
2006,01,27,02,37,1.60
2006,01,27,02,38,1.60
2006,01,27,02,39,1.60
2006,01,27,02,40,3.20
2006,01,27,02,41,3.20
2006,01,27,02,42,1.60
2006,01,27,02,43,1.60
2006,01,27,02,44,1.60
2006,01,27,02,45,1.60
2006,01,27,02,46,1.60
2006,01,27,02,47,1.60
2006,01,27,02,48,0.00
2006,01,27,02,49,1.60
2006,01,27,02,50,3.20
2006,01,27,02,51,3.20
2006,01,27,02,52,3.20
2006,01,27,02,53,3.20
2006,01,27,02,54,1.60
2006,01,27,02,55,1.60
2006,01,27,02,56,1.60
2006,01,27,02,57,1.60
2006,01,27,02,58,1.60
2006,01,27,02,59,4.80
2006,01,27,03,00,3.20
2006,01,27,03,01,4.80
2006,01,27,03,02,1.60
2006,01,27,03,03,1.60
2006,01,27,03,04,3.20
2006,01,27,03,05,3.20
2006,01,27,03,06,3.20
2006,01,27,03,07,1.60
2006,01,27,03,08,3.20
2006,01,27,03,09,3.20
2006,01,27,03,10,3.20
2006,01,27,03,11,1.60
2006,01,27,03,12,0.00
2006,01,27,03,13,0.00
2006,01,27,03,14,1.60
2006,01,27,03,15,1.60
2006,01,27,03,16,3.20
2006,01,27,03,17,1.60
2006,01,27,03,18,3.20
2006,01,27,03,19,1.60
2006,01,27,03,20,1.60
2006,01,27,03,21,1.60
2006,01,27,03,22,1.60
2006,01,27,03,23,1.60
2006,01,27,03,24,1.60
2006,01,27,03,25,1.60
2006,01,27,03,26,1.60
2006,01,27,03,27,1.60
2006,01,27,03,28,1.60
2006,01,27,03,29,1.60
2006,01,27,03,30,0.00
2006,01,27,03,31,0.00
2006,01,27,03,32,0.00
2006,01,27,03,33,0.00
2006,01,27,03,34,0.00
2006,01,27,03,35,0.00
2006,01,27,03,36,0.00
2006,01,27,03,37,0.00
2006,01,27,03,38,0.00
2006,01,27,03,39,0.00
2006,01,27,03,40,0.00
2006,01,27,03,41,0.00
2006,01,27,03,42,0.00
2006,01,27,03,43,0.00
2006,01,27,03,44,0.00
2006,01,27,03,45,0.00
2006,01,27,03,46,0.00
2006,01,27,03,47,1.60
2006,01,27,03,48,3.20
2006,01,27,03,49,1.60
2006,01,27,03,50,3.20
2006,01,27,03,51,4.80
2006,01,27,03,52,3.20
2006,01,27,03,53,3.20
2006,01,27,03,54,1.60
2006,01,27,03,55,0.00
2006,01,27,03,56,3.20
2006,01,27,03,57,1.60
2006,01,27,03,58,1.60
2006,01,27,03,59,1.60
2006,01,27,04,00,1.60
2006,01,27,04,01,1.60
2006,01,27,04,02,3.20
2006,01,27,04,03,3.20
2006,01,27,04,04,3.20
2006,01,27,04,05,3.20
2006,01,27,04,06,3.20
2006,01,27,04,07,3.20
2006,01,27,04,08,3.20
2006,01,27,04,09,3.20
2006,01,27,04,10,3.20
2006,01,27,04,11,4.80
2006,01,27,04,12,4.80
2006,01,27,04,13,3.20
2006,01,27,04,14,1.60
2006,01,27,04,15,3.20
2006,01,27,04,16,1.60
2006,01,27,04,17,3.20
2006,01,27,04,18,1.60
2006,01,27,04,19,3.20
2006,01,27,04,20,3.20
2006,01,27,04,21,4.80
2006,01,27,04,22,3.20
2006,01,27,04,23,1.60
2006,01,27,04,24,1.60
2006,01,27,04,25,3.20
2006,01,27,04,26,1.60
2006,01,27,04,27,1.60
2006,01,27,04,28,1.60
2006,01,27,04,29,3.20
2006,01,27,04,30,1.60
2006,01,27,04,31,3.20
2006,01,27,04,32,3.20
2006,01,27,04,33,3.20
2006,01,27,04,34,1.60
2006,01,27,04,35,1.60
2006,01,27,04,36,1.60
2006,01,27,04,37,1.60
2006,01,27,04,38,3.20
2006,01,27,04,39,3.20
2006,01,27,04,40,3.20
2006,01,27,04,41,3.20
2006,01,27,04,42,3.20
2006,01,27,04,43,1.60
2006,01,27,04,44,1.60
2006,01,27,04,45,1.60
2006,01,27,04,46,3.20
2006,01,27,04,47,3.20
2006,01,27,04,48,1.60
2006,01,27,04,49,1.60
2006,01,27,04,50,1.60
2006,01,27,04,51,1.60
2006,01,27,04,52,1.60
2006,01,27,04,53,3.20
2006,01,27,04,54,1.60
2006,01,27,04,55,1.60
2006,01,27,04,56,3.20
2006,01,27,04,57,3.20
2006,01,27,04,58,1.60
2006,01,27,04,59,1.60
2006,01,27,05,00,1.60
2006,01,27,05,01,0.00
2006,01,27,05,02,0.00
2006,01,27,05,03,1.60
2006,01,27,05,04,1.60
2006,01,27,05,05,1.60
2006,01,27,05,06,1.60
2006,01,27,05,07,1.60
2006,01,27,05,08,1.60
2006,01,27,05,09,1.60
2006,01,27,05,10,1.60
2006,01,27,05,11,1.60
2006,01,27,05,12,1.60
2006,01,27,05,13,1.60
2006,01,27,05,14,1.60
2006,01,27,05,15,3.20
2006,01,27,05,16,1.60
2006,01,27,05,17,1.60
2006,01,27,05,18,1.60
2006,01,27,05,19,1.60
2006,01,27,05,20,1.60
2006,01,27,05,21,1.60
2006,01,27,05,22,4.80
2006,01,27,05,23,3.20
2006,01,27,05,24,1.60
2006,01,27,05,25,1.60
2006,01,27,05,26,1.60
2006,01,27,05,27,4.80
2006,01,27,05,28,4.80
2006,01,27,05,29,1.60
2006,01,27,05,30,1.60
2006,01,27,05,31,1.60
2006,01,27,05,32,3.20
2006,01,27,05,33,1.60
2006,01,27,05,34,1.60
2006,01,27,05,35,3.20
2006,01,27,05,36,1.60
2006,01,27,05,37,3.20
2006,01,27,05,38,1.60
2006,01,27,05,39,0.00
2006,01,27,05,40,0.00
2006,01,27,05,41,0.00
2006,01,27,05,42,0.00
2006,01,27,05,43,0.00
2006,01,27,05,44,0.00
2006,01,27,05,45,0.00
2006,01,27,05,46,0.00
2006,01,27,05,47,0.00
2006,01,27,05,48,0.00
2006,01,27,05,49,0.00
2006,01,27,05,50,0.00
2006,01,27,05,51,0.00
2006,01,27,05,52,0.00
2006,01,27,05,53,0.00
2006,01,27,05,54,0.00
2006,01,27,05,55,0.00
2006,01,27,05,56,0.00
2006,01,27,05,57,0.00
2006,01,27,05,58,0.00
2006,01,27,05,59,0.00
2006,01,27,06,00,0.00
2006,01,27,06,01,0.00
2006,01,27,06,02,0.00
2006,01,27,06,03,0.00
2006,01,27,06,04,0.00
2006,01,27,06,05,0.00
2006,01,27,06,06,0.00
2006,01,27,06,07,0.00
2006,01,27,06,08,0.00
2006,01,27,06,09,0.00
2006,01,27,06,10,0.00
2006,01,27,06,11,0.00
2006,01,27,06,12,0.00
2006,01,27,06,13,0.00
2006,01,27,06,14,0.00
2006,01,27,06,15,0.00
2006,01,27,06,16,0.00
2006,01,27,06,17,0.00
2006,01,27,06,18,0.00
2006,01,27,06,19,0.00
2006,01,27,06,20,0.00
2006,01,27,06,21,1.60
2006,01,27,06,22,1.60
2006,01,27,06,23,1.60
2006,01,27,06,24,1.60
2006,01,27,06,25,1.60
2006,01,27,06,26,1.60
2006,01,27,06,27,1.60
2006,01,27,06,28,0.00
2006,01,27,06,29,0.00
2006,01,27,06,30,0.00
2006,01,27,06,31,0.00
2006,01,27,06,32,1.60
2006,01,27,06,33,1.60
2006,01,27,06,34,1.60
2006,01,27,06,35,1.60
2006,01,27,06,36,1.60
2006,01,27,06,37,1.60
2006,01,27,06,38,1.60
2006,01,27,06,39,1.60
2006,01,27,06,40,0.00
2006,01,27,06,41,0.00
2006,01,27,06,42,0.00
2006,01,27,06,43,0.00
2006,01,27,06,44,0.00
2006,01,27,06,45,0.00
2006,01,27,06,46,1.60
2006,01,27,06,47,0.00
2006,01,27,06,48,1.60
2006,01,27,06,49,1.60
2006,01,27,06,50,1.60
2006,01,27,06,51,1.60
2006,01,27,06,52,1.60
2006,01,27,06,53,1.60
2006,01,27,06,54,1.60
2006,01,27,06,55,0.00
2006,01,27,06,56,1.60
2006,01,27,06,57,0.00
2006,01,27,06,58,0.00
2006,01,27,06,59,0.00
2006,01,27,07,00,0.00
2006,01,27,07,01,0.00
2006,01,27,07,02,0.00
2006,01,27,07,03,0.00
2006,01,27,07,04,0.00
2006,01,27,07,05,0.00
2006,01,27,07,06,0.00
2006,01,27,07,07,0.00
2006,01,27,07,08,0.00
2006,01,27,07,09,0.00
2006,01,27,07,10,0.00
2006,01,27,07,11,0.00
2006,01,27,07,12,0.00
2006,01,27,07,13,0.00
2006,01,27,07,14,0.00
2006,01,27,07,15,0.00
2006,01,27,07,16,0.00
2006,01,27,07,17,0.00
2006,01,27,07,18,0.00
2006,01,27,07,19,0.00
2006,01,27,07,20,1.60
2006,01,27,07,21,0.00
2006,01,27,07,22,0.00
2006,01,27,07,23,0.00
2006,01,27,07,24,0.00
2006,01,27,07,25,0.00
2006,01,27,07,26,0.00
2006,01,27,07,27,0.00
2006,01,27,07,28,0.00
2006,01,27,07,29,0.00
2006,01,27,07,30,0.00
2006,01,27,07,31,0.00
2006,01,27,07,32,0.00
2006,01,27,07,33,0.00
2006,01,27,07,34,0.00
2006,01,27,07,35,0.00
2006,01,27,07,36,0.00
2006,01,27,07,37,0.00
2006,01,27,07,38,0.00
2006,01,27,07,39,0.00
2006,01,27,07,40,0.00
2006,01,27,07,41,0.00
2006,01,27,07,42,0.00
2006,01,27,07,43,0.00
2006,01,27,07,44,0.00
2006,01,27,07,45,0.00
2006,01,27,07,46,0.00
2006,01,27,07,47,0.00
2006,01,27,07,48,0.00
2006,01,27,07,49,0.00
2006,01,27,07,50,0.00
2006,01,27,07,51,0.00
2006,01,27,07,52,0.00
2006,01,27,07,53,0.00
2006,01,27,07,54,0.00
2006,01,27,07,55,0.00
2006,01,27,07,56,0.00
2006,01,27,07,57,0.00
2006,01,27,07,58,0.00
2006,01,27,07,59,0.00
2006,01,27,08,00,0.00
2006,01,27,08,01,0.00
2006,01,27,08,02,0.00
2006,01,27,08,03,0.00
2006,01,27,08,04,0.00
2006,01,27,08,05,0.00
2006,01,27,08,06,0.00
2006,01,27,08,07,0.00
2006,01,27,08,08,0.00
2006,01,27,08,09,0.00
2006,01,27,08,10,0.00
2006,01,27,08,11,0.00
2006,01,27,08,12,0.00
2006,01,27,08,13,0.00
2006,01,27,08,14,0.00
2006,01,27,08,15,0.00
2006,01,27,08,16,0.00
2006,01,27,08,17,0.00
2006,01,27,08,18,0.00
2006,01,27,08,19,0.00
2006,01,27,08,20,0.00
2006,01,27,08,21,0.00
2006,01,27,08,22,0.00
2006,01,27,08,23,0.00
2006,01,27,08,24,0.00
2006,01,27,08,25,0.00
2006,01,27,08,26,0.00
2006,01,27,08,27,0.00
2006,01,27,08,28,0.00
2006,01,27,08,29,0.00
2006,01,27,08,30,0.00
2006,01,27,08,31,0.00
2006,01,27,08,32,0.00
2006,01,27,08,33,0.00
2006,01,27,08,34,0.00
2006,01,27,08,35,0.00
2006,01,27,08,36,0.00
2006,01,27,08,37,0.00
2006,01,27,08,38,0.00
2006,01,27,08,39,0.00
2006,01,27,08,40,0.00
2006,01,27,08,41,0.00
2006,01,27,08,42,0.00
2006,01,27,08,43,0.00
2006,01,27,08,44,0.00
2006,01,27,08,45,0.00
2006,01,27,08,46,1.60
2006,01,27,08,47,3.20
2006,01,27,08,48,4.80
2006,01,27,08,49,6.40
2006,01,27,08,50,3.20
2006,01,27,08,51,4.80
2006,01,27,08,52,1.60
2006,01,27,08,53,1.60
2006,01,27,08,54,4.80
2006,01,27,08,55,4.80
2006,01,27,08,56,3.20
2006,01,27,08,57,6.40
2006,01,27,08,58,4.80
2006,01,27,08,59,4.80
2006,01,27,09,00,4.80
2006,01,27,09,01,3.20
2006,01,27,09,02,1.60
2006,01,27,09,03,3.20
2006,01,27,09,04,4.80
2006,01,27,09,05,1.60
2006,01,27,09,06,3.20
2006,01,27,09,07,3.20
2006,01,27,09,08,0.00
2006,01,27,09,09,3.20
2006,01,27,09,10,1.60
2006,01,27,09,11,0.00
2006,01,27,09,12,1.60
2006,01,27,09,13,3.20
2006,01,27,09,14,3.20
2006,01,27,09,15,3.20
2006,01,27,09,16,0.00
2006,01,27,09,17,0.00
2006,01,27,09,18,3.20
2006,01,27,09,19,1.60
2006,01,27,09,20,3.20
2006,01,27,09,21,3.20
2006,01,27,09,22,1.60
2006,01,27,09,23,0.00
2006,01,27,09,24,0.00
2006,01,27,09,25,1.60
2006,01,27,09,26,1.60
2006,01,27,09,27,3.20
2006,01,27,09,28,1.60
2006,01,27,09,29,0.00
2006,01,27,09,30,3.20
2006,01,27,09,31,1.60
2006,01,27,09,32,1.60
2006,01,27,09,33,3.20
2006,01,27,09,34,1.60
2006,01,27,09,35,1.60
2006,01,27,09,36,1.60
2006,01,27,09,37,1.60
2006,01,27,09,38,1.60
2006,01,27,09,39,1.60
2006,01,27,09,40,1.60
2006,01,27,09,41,0.00
2006,01,27,09,42,0.00
2006,01,27,09,43,1.60
2006,01,27,09,44,1.60
2006,01,27,09,45,1.60
2006,01,27,09,46,3.20
2006,01,27,09,47,3.20
2006,01,27,09,48,1.60
2006,01,27,09,49,1.60
2006,01,27,09,50,1.60
2006,01,27,09,51,3.20
2006,01,27,09,52,1.60
2006,01,27,09,53,1.60
2006,01,27,09,54,3.20
2006,01,27,09,55,1.60
2006,01,27,09,56,0.00
2006,01,27,09,57,1.60
2006,01,27,09,58,0.00
2006,01,27,09,59,0.00
2006,01,27,10,00,0.00
2006,01,27,10,01,1.60
2006,01,27,10,02,3.20
2006,01,27,10,03,1.60
2006,01,27,10,04,1.60
2006,01,27,10,05,1.60
2006,01,27,10,06,1.60
2006,01,27,10,07,1.60
2006,01,27,10,08,1.60
2006,01,27,10,09,3.20
2006,01,27,10,10,4.80
2006,01,27,10,11,4.80
2006,01,27,10,12,4.80
2006,01,27,10,13,4.80
2006,01,27,10,14,3.20
2006,01,27,10,15,3.20
2006,01,27,10,16,1.60
2006,01,27,10,17,0.00
2006,01,27,10,18,3.20
2006,01,27,10,19,3.20
2006,01,27,10,20,3.20
2006,01,27,10,21,3.20
2006,01,27,10,22,1.60
2006,01,27,10,23,3.20
2006,01,27,10,24,3.20
2006,01,27,10,25,3.20
2006,01,27,10,26,6.40
2006,01,27,10,27,8.10
2006,01,27,10,28,8.10
2006,01,27,10,29,8.10
2006,01,27,10,30,6.40
2006,01,27,10,31,6.40
2006,01,27,10,32,6.40
2006,01,27,10,33,6.40
2006,01,27,10,34,4.80
2006,01,27,10,35,4.80
2006,01,27,10,36,6.40
2006,01,27,10,37,6.40
2006,01,27,10,38,8.10
2006,01,27,10,39,8.10
2006,01,27,10,40,8.10
2006,01,27,10,41,11.30
2006,01,27,10,42,8.10
2006,01,27,10,43,11.30
2006,01,27,10,44,8.10
2006,01,27,10,45,8.10
2006,01,27,10,46,8.10
2006,01,27,10,47,6.40
2006,01,27,10,48,11.30
2006,01,27,10,49,9.60
2006,01,27,10,50,11.30
2006,01,27,10,51,11.30
2006,01,27,10,52,9.60
2006,01,27,10,53,8.10
2006,01,27,10,54,6.40
2006,01,27,10,55,4.80
2006,01,27,10,56,9.60
2006,01,27,10,57,9.60
2006,01,27,10,58,9.60
2006,01,27,10,59,8.10
2006,01,27,11,00,8.10
2006,01,27,11,01,8.10
2006,01,27,11,02,6.40
2006,01,27,11,03,9.60
2006,01,27,11,04,11.30
2006,01,27,11,05,11.30
2006,01,27,11,06,11.30
2006,01,27,11,07,4.80
2006,01,27,11,08,6.40
2006,01,27,11,09,8.10
2006,01,27,11,10,12.90
2006,01,27,11,11,14.50
2006,01,27,11,12,17.70
2006,01,27,11,13,11.30
2006,01,27,11,14,16.10
2006,01,27,11,15,16.10
2006,01,27,11,16,14.50
2006,01,27,11,17,11.30
2006,01,27,11,18,9.60
2006,01,27,11,19,9.60
2006,01,27,11,20,6.40
2006,01,27,11,21,12.90
2006,01,27,11,22,17.70
2006,01,27,11,23,19.30
2006,01,27,11,24,8.10
2006,01,27,11,25,11.30
2006,01,27,11,26,14.50
2006,01,27,11,27,14.50
2006,01,27,11,28,16.10
2006,01,27,11,29,11.30
2006,01,27,11,30,9.60
2006,01,27,11,31,11.30
2006,01,27,11,32,17.70
2006,01,27,11,33,17.70
2006,01,27,11,34,17.70
2006,01,27,11,35,20.90
2006,01,27,11,36,11.30
2006,01,27,11,37,11.30
2006,01,27,11,38,17.70
2006,01,27,11,39,17.70
2006,01,27,11,40,8.10
2006,01,27,11,41,14.50
2006,01,27,11,42,17.70
2006,01,27,11,43,19.30
2006,01,27,11,44,24.20
2006,01,27,11,45,20.90
2006,01,27,11,46,16.10
2006,01,27,11,47,19.30
2006,01,27,11,48,16.10
2006,01,27,11,49,19.30
2006,01,27,11,50,19.30
2006,01,27,11,51,17.70
2006,01,27,11,52,17.70
2006,01,27,11,53,19.30
2006,01,27,11,54,11.30
2006,01,27,11,55,11.30
2006,01,27,11,56,20.90
2006,01,27,11,57,20.90
2006,01,27,11,58,24.20
2006,01,27,11,59,20.90
2006,01,27,12,00,17.70
2006,01,27,12,01,24.20
2006,01,27,12,02,24.20
2006,01,27,12,03,20.90
2006,01,27,12,04,22.50
2006,01,27,12,05,17.70
2006,01,27,12,06,17.70
2006,01,27,12,07,20.90
2006,01,27,12,08,20.90
2006,01,27,12,09,22.50
2006,01,27,12,10,22.50
2006,01,27,12,11,22.50
2006,01,27,12,12,19.30
2006,01,27,12,13,20.90
2006,01,27,12,14,20.90
2006,01,27,12,15,19.30
2006,01,27,12,16,22.50
2006,01,27,12,17,17.70
2006,01,27,12,18,17.70
2006,01,27,12,19,19.30
2006,01,27,12,20,17.70
2006,01,27,12,21,20.90
2006,01,27,12,22,19.30
2006,01,27,12,23,19.30
2006,01,27,12,24,19.30
2006,01,27,12,25,24.20
2006,01,27,12,26,25.70
2006,01,27,12,27,11.30
2006,01,27,12,28,17.70
2006,01,27,12,29,19.30
2006,01,27,12,30,17.70
2006,01,27,12,31,19.30
2006,01,27,12,32,25.70
2006,01,27,12,33,19.30
2006,01,27,12,34,16.10
2006,01,27,12,35,6.40
2006,01,27,12,36,11.30
2006,01,27,12,37,11.30
2006,01,27,12,38,17.70
2006,01,27,12,39,16.10
2006,01,27,12,40,24.20
2006,01,27,12,41,20.90
2006,01,27,12,42,16.10
2006,01,27,12,43,20.90
2006,01,27,12,44,11.30
2006,01,27,12,45,19.30
2006,01,27,12,46,20.90
2006,01,27,12,47,17.70
2006,01,27,12,48,20.90
2006,01,27,12,49,19.30
2006,01,27,12,50,12.90
2006,01,27,12,51,19.30
2006,01,27,12,52,19.30
2006,01,27,12,53,16.10
2006,01,27,12,54,12.90
2006,01,27,12,55,17.70
2006,01,27,12,56,22.50
2006,01,27,12,57,17.70
2006,01,27,12,58,8.10
2006,01,27,12,59,14.50
2006,01,27,13,00,22.50
2006,01,27,13,01,25.70
2006,01,27,13,02,24.20
2006,01,27,13,03,24.20
2006,01,27,13,04,17.70
2006,01,27,13,05,8.10
2006,01,27,13,06,20.90
2006,01,27,13,07,16.10
2006,01,27,13,08,16.10
2006,01,27,13,09,19.30
2006,01,27,13,10,19.30
2006,01,27,13,11,17.70
2006,01,27,13,12,17.70
2006,01,27,13,13,20.90
2006,01,27,13,14,19.30
2006,01,27,13,15,11.30
2006,01,27,13,16,11.30
2006,01,27,13,17,12.90
2006,01,27,13,18,9.60
2006,01,27,13,19,20.90
2006,01,27,13,20,11.30
2006,01,27,13,21,8.10
2006,01,27,13,22,4.80
2006,01,27,13,23,3.20
2006,01,27,13,24,3.20
2006,01,27,13,25,11.30
2006,01,27,13,26,14.50
2006,01,27,13,27,11.30
2006,01,27,13,28,16.10
2006,01,27,13,29,16.10
2006,01,27,13,30,11.30
2006,01,27,13,31,14.50
2006,01,27,13,32,17.70
2006,01,27,13,33,17.70
2006,01,27,13,34,11.30
2006,01,27,13,35,12.90
2006,01,27,13,36,17.70
2006,01,27,13,37,20.90
2006,01,27,13,38,11.30
2006,01,27,13,39,8.10
2006,01,27,13,40,11.30
2006,01,27,13,41,11.30
2006,01,27,13,42,17.70
2006,01,27,13,43,16.10
2006,01,27,13,44,12.90
2006,01,27,13,45,9.60
2006,01,27,13,46,9.60
2006,01,27,13,47,9.60
2006,01,27,13,48,8.10
2006,01,27,13,49,8.10
2006,01,27,13,50,6.40
2006,01,27,13,51,8.10
2006,01,27,13,52,8.10
2006,01,27,13,53,11.30
2006,01,27,13,54,16.10
2006,01,27,13,55,11.30
2006,01,27,13,56,4.80
2006,01,27,13,57,14.50
2006,01,27,13,58,9.60
2006,01,27,13,59,9.60
2006,01,27,14,00,11.30
2006,01,27,14,01,9.60
2006,01,27,14,02,12.90
2006,01,27,14,03,6.40
2006,01,27,14,04,8.10
2006,01,27,14,05,8.10
2006,01,27,14,06,8.10
2006,01,27,14,07,11.30
2006,01,27,14,08,16.10
2006,01,27,14,09,11.30
2006,01,27,14,10,14.50
2006,01,27,14,11,8.10
2006,01,27,14,12,11.30
2006,01,27,14,13,8.10
2006,01,27,14,14,6.40
2006,01,27,14,15,6.40
2006,01,27,14,16,11.30
2006,01,27,14,17,8.10
2006,01,27,14,18,8.10
2006,01,27,14,19,8.10
2006,01,27,14,20,9.60
2006,01,27,14,21,12.90
2006,01,27,14,22,4.80
2006,01,27,14,23,8.10
2006,01,27,14,24,8.10
2006,01,27,14,25,11.30
2006,01,27,14,26,11.30
2006,01,27,14,27,9.60
2006,01,27,14,28,8.10
2006,01,27,14,29,6.40
2006,01,27,14,30,6.40
2006,01,27,14,31,6.40
2006,01,27,14,32,6.40
2006,01,27,14,33,3.20
2006,01,27,14,34,6.40
2006,01,27,14,35,3.20
2006,01,27,14,36,8.10
2006,01,27,14,37,9.60
2006,01,27,14,38,9.60
2006,01,27,14,39,9.60
2006,01,27,14,40,9.60
2006,01,27,14,41,6.40
2006,01,27,14,42,8.10
2006,01,27,14,43,6.40
2006,01,27,14,44,6.40
2006,01,27,14,45,8.10
2006,01,27,14,46,12.90
2006,01,27,14,47,8.10
2006,01,27,14,48,8.10
2006,01,27,14,49,11.30
2006,01,27,14,50,8.10
2006,01,27,14,51,6.40
2006,01,27,14,52,6.40
2006,01,27,14,53,6.40
2006,01,27,14,54,4.80
2006,01,27,14,55,4.80
2006,01,27,14,56,4.80
2006,01,27,14,57,6.40
2006,01,27,14,58,4.80
2006,01,27,14,59,6.40
2006,01,27,15,00,8.10
2006,01,27,15,01,8.10
2006,01,27,15,02,4.80
2006,01,27,15,03,4.80
2006,01,27,15,04,12.90
2006,01,27,15,05,16.10
2006,01,27,15,06,6.40
2006,01,27,15,07,12.90
2006,01,27,15,08,11.30
2006,01,27,15,09,6.40
2006,01,27,15,10,3.20
2006,01,27,15,11,6.40
2006,01,27,15,12,1.60
2006,01,27,15,13,9.60
2006,01,27,15,14,9.60
2006,01,27,15,15,9.60
2006,01,27,15,16,8.10
2006,01,27,15,17,8.10
2006,01,27,15,18,8.10
2006,01,27,15,19,8.10
2006,01,27,15,20,11.30
2006,01,27,15,21,11.30
2006,01,27,15,22,9.60
2006,01,27,15,23,6.40
2006,01,27,15,24,6.40
2006,01,27,15,25,9.60
2006,01,27,15,26,6.40
2006,01,27,15,27,9.60
2006,01,27,15,28,9.60
2006,01,27,15,29,14.50
2006,01,27,15,30,11.30
2006,01,27,15,31,11.30
2006,01,27,15,32,9.60
2006,01,27,15,33,9.60
2006,01,27,15,34,11.30
2006,01,27,15,35,9.60
2006,01,27,15,36,4.80
2006,01,27,15,37,4.80
2006,01,27,15,38,9.60
2006,01,27,15,39,9.60
2006,01,27,15,40,9.60
2006,01,27,15,41,3.20
2006,01,27,15,42,16.10
2006,01,27,15,43,16.10
2006,01,27,15,44,8.10
2006,01,27,15,45,8.10
2006,01,27,15,46,8.10
2006,01,27,15,47,11.30
2006,01,27,15,48,11.30
2006,01,27,15,49,14.50
2006,01,27,15,50,17.70
2006,01,27,15,51,11.30
2006,01,27,15,52,9.60
2006,01,27,15,53,11.30
2006,01,27,15,54,8.10
2006,01,27,15,55,6.40
2006,01,27,15,56,3.20
2006,01,27,15,57,9.60
2006,01,27,15,58,4.80
2006,01,27,15,59,6.40
2006,01,27,16,00,6.40
2006,01,27,16,01,6.40
2006,01,27,16,02,9.60
2006,01,27,16,03,11.30
2006,01,27,16,04,11.30
2006,01,27,16,05,4.80
2006,01,27,16,06,4.80
2006,01,27,16,07,14.50
2006,01,27,16,08,14.50
2006,01,27,16,09,4.80
2006,01,27,16,10,9.60
2006,01,27,16,11,14.50
2006,01,27,16,12,12.90
2006,01,27,16,13,14.50
2006,01,27,16,14,16.10
2006,01,27,16,15,4.80
2006,01,27,16,16,9.60
2006,01,27,16,17,8.10
2006,01,27,16,18,6.40
2006,01,27,16,19,4.80
2006,01,27,16,20,6.40
2006,01,27,16,21,8.10
2006,01,27,16,22,8.10
2006,01,27,16,23,11.30
2006,01,27,16,24,11.30
2006,01,27,16,25,4.80
2006,01,27,16,26,8.10
2006,01,27,16,27,6.40
2006,01,27,16,28,6.40
2006,01,27,16,29,8.10
2006,01,27,16,30,9.60
2006,01,27,16,31,9.60
2006,01,27,16,32,9.60
2006,01,27,16,33,14.50
2006,01,27,16,34,6.40
2006,01,27,16,35,6.40
2006,01,27,16,36,8.10
2006,01,27,16,37,3.20
2006,01,27,16,38,3.20
2006,01,27,16,39,11.30
2006,01,27,16,40,9.60
2006,01,27,16,41,8.10
2006,01,27,16,42,16.10
2006,01,27,16,43,8.10
2006,01,27,16,44,4.80
2006,01,27,16,45,4.80
2006,01,27,16,46,8.10
2006,01,27,16,47,9.60
2006,01,27,16,48,4.80
2006,01,27,16,49,4.80
2006,01,27,16,50,6.40
2006,01,27,16,51,9.60
2006,01,27,16,52,19.30
2006,01,27,16,53,12.90
2006,01,27,16,54,8.10
2006,01,27,16,55,3.20
2006,01,27,16,56,6.40
2006,01,27,16,57,3.20
2006,01,27,16,58,9.60
2006,01,27,16,59,6.40
2006,01,27,17,00,11.30
2006,01,27,17,01,3.20
2006,01,27,17,02,4.80
2006,01,27,17,03,8.10
2006,01,27,17,04,9.60
2006,01,27,17,05,9.60
2006,01,27,17,06,4.80
2006,01,27,17,07,9.60
2006,01,27,17,08,8.10
2006,01,27,17,09,8.10
2006,01,27,17,10,4.80
2006,01,27,17,11,4.80
2006,01,27,17,12,6.40
2006,01,27,17,13,4.80
2006,01,27,17,14,1.60
2006,01,27,17,15,1.60
2006,01,27,17,16,0.00
2006,01,27,17,17,6.40
2006,01,27,17,18,3.20
2006,01,27,17,19,3.20
2006,01,27,17,20,6.40
2006,01,27,17,21,6.40
2006,01,27,17,22,4.80
2006,01,27,17,23,8.10
2006,01,27,17,24,4.80
2006,01,27,17,25,3.20
2006,01,27,17,26,4.80
2006,01,27,17,27,4.80
2006,01,27,17,28,8.10
2006,01,27,17,29,9.60
2006,01,27,17,30,4.80
2006,01,27,17,31,1.60
2006,01,27,17,32,1.60
2006,01,27,17,33,1.60
2006,01,27,17,34,1.60
2006,01,27,17,35,1.60
2006,01,27,17,36,1.60
2006,01,27,17,37,1.60
2006,01,27,17,38,1.60
2006,01,27,17,39,1.60
2006,01,27,17,40,1.60
2006,01,27,17,41,1.60
2006,01,27,17,42,0.00
2006,01,27,17,43,0.00
2006,01,27,17,44,0.00
2006,01,27,17,45,0.00
2006,01,27,17,46,0.00
2006,01,27,17,47,0.00
2006,01,27,17,48,0.00
2006,01,27,17,49,0.00
2006,01,27,17,50,0.00
2006,01,27,17,51,0.00
2006,01,27,17,52,0.00
2006,01,27,17,53,0.00
2006,01,27,17,54,0.00
2006,01,27,17,55,0.00
2006,01,27,17,56,0.00
2006,01,27,17,57,0.00